Location: Nelson
(41.2830°S, 173.2830°E)
Time: 14:21:17
(UTC+13:00)

Cosmos 2278 Rocket - Pass Details

Date: 24 January 2019
Orbit: 839 x 847 km, 71.0° (Epoch: 13 October)

Event Time Altitude Azimuth Distance (km) Brightness Sun altitude
Rises 23:20:38 0° 194° (SSW) 3,431 6.6 -21.5°
Reaches altitude 10° 23:23:38 10° 179° (S) 2,489 5.4 -21.9°
Maximum altitude 23:28:07 23° 128° (SE) 1,732 3.8 -22.3°
Enters shadow 23:30:08 19° 98° (E) 1,907 3.8 -22.5°
